Sheboygan, WI

5:30 AM CDT on March 29, 2017 (GMT -0500)
Sheboygan County Memorial

Weather History for KSBM - September, 2012

Change the Weather History Date:

Saturday, September 29, 2012

  Actual Average Record
Temperature  
Mean Temperature 58 °F -  
Max Temperature 73 °F 65 °F 81 °F (1987)
Min Temperature 43 °F 49 °F 30 °F (2003)
Degree Days  
Heating Degree Days 7    
Growing Degree Days 8 (Base 50)    
Moisture  
Dew Point 43 °F    
Average Humidity 66    
Maximum Humidity 93    
Minimum Humidity 31    
Precipitation  
Precipitation 0.00 in - - ()
Sea Level Pressure  
Sea Level Pressure 30.06 in    
Wind  
Wind Speed 4 mph (North)    
Max Wind Speed 15 mph    
Max Gust Speed -    
Visibility 10 miles    
Events      
Averages and records for this station are not official NWS values.
T = Trace of Precipitation, MM = Missing Value Source: NWS Daily Summary

Daily Weather History Graph

Daily Weather History Graph

Search for Another Location

Airport or City:

Trip Planner

Search our weather history database for the weather conditions in past years. The results will help you decide how hot, cold, wet, or windy it might be!

Date:

Astronomy

Sep. 29, 2012 Rise Set
Actual Time 6:47 AM CDT 6:35 PM CDT
Civil Twilight 6:18 AM CDT 7:03 PM CDT
Nautical Twilight 5:45 AM CDT 7:36 PM CDT
Astronomical Twilight 5:11 AM CDT 8:10 PM CDT
Moon 6:05 PM CDT 6:18 AM CDT
Length of Visible Light 12h 45m
Length of Day
11h 47m
Full, 100% of the Moon is Illuminated
Sep 29
Full
Sep 29
Full
Oct 8
Last Quarter
Oct 15
New
Oct 21
First Quarter

Hourly Weather History & Observations

Time (CDT) Temp. Windchill Dew Point Humidity Pressure Visibility Wind Dir Wind Speed Gust Speed Precip Events Conditions
12:53 AM 45.0 °F - 39.9 °F 82% 30.10 in 10.0 mi Calm Calm - N/A   Clear
1:53 AM 45.0 °F - 39.0 °F 80% 30.10 in 10.0 mi Calm Calm - N/A   Clear
2:53 AM 43.0 °F - 39.0 °F 86% 30.08 in 10.0 mi Calm Calm - N/A   Clear
3:53 AM 45.0 °F 42.6 °F 39.0 °F 80% 30.08 in 10.0 mi WSW 4.6 mph - N/A   Clear
4:53 AM 46.0 °F 44.8 °F 37.9 °F 73% 30.07 in 10.0 mi WNW 3.5 mph - N/A   Clear
5:53 AM 48.0 °F - 39.9 °F 74% 30.07 in 10.0 mi WNW 4.6 mph - N/A   Clear
6:53 AM 52.0 °F - 39.9 °F 63% 30.07 in 10.0 mi West 6.9 mph - N/A   Clear
7:53 AM 54.0 °F - 39.9 °F 59% 30.08 in 10.0 mi WNW 4.6 mph - N/A   Clear
8:53 AM 60.1 °F - 42.1 °F 51% 30.09 in 10.0 mi NW 8.1 mph - N/A   Clear
9:53 AM 64.9 °F - 41.0 °F 42% 30.08 in 10.0 mi North 5.8 mph - N/A   Partly Cloudy
10:53 AM 70.0 °F - 41.0 °F 35% 30.06 in 10.0 mi NNE 4.6 mph - N/A   Clear
11:53 AM 73.0 °F - 41.0 °F 31% 30.05 in 10.0 mi NNE 9.2 mph - N/A   Clear
12:53 PM 68.0 °F - 48.9 °F 50% 30.05 in 10.0 mi ENE 13.8 mph - N/A   Clear
1:53 PM 68.0 °F - 51.1 °F 55% 30.04 in 10.0 mi ENE 12.7 mph - N/A   Clear
2:53 PM 68.0 °F - 50.0 °F 52% 30.03 in 10.0 mi East 12.7 mph - N/A   Clear
3:53 PM 66.9 °F - 43.0 °F 42% 30.02 in 10.0 mi ENE 15.0 mph - N/A   Clear
4:53 PM 64.9 °F - 46.0 °F 50% 30.03 in 10.0 mi NE 12.7 mph - N/A   Clear
5:53 PM 62.1 °F - 45.0 °F 53% 30.03 in 10.0 mi NE 9.2 mph - N/A   Clear
6:53 PM 54.0 °F - 46.0 °F 75% 30.04 in 10.0 mi NNE 3.5 mph - N/A   Clear
7:53 PM 53.1 °F - 48.0 °F 83% 30.03 in 10.0 mi Calm Calm - N/A   Clear
8:53 PM 48.9 °F - 46.0 °F 90% 30.04 in 10.0 mi WNW 3.5 mph - N/A   Clear
9:53 PM 48.0 °F - 45.0 °F 89% 30.03 in 10.0 mi Calm Calm - N/A   Clear
10:53 PM 46.0 °F 43.9 °F 44.1 °F 93% 30.04 in 10.0 mi NW 4.6 mph - N/A   Clear
11:53 PM 48.0 °F - 45.0 °F 89% 30.04 in 10.0 mi NNW 5.8 mph - N/A   Clear